N122JM MDPP-TNCM

Flight info

Callsign N122JM
Flight time 1h 50m
Altitude 19000
Route POKIL1 PIXES M348 KATOK/N0275F250 M348 AQABA DCT PASIC B520 LARPP
Aircraft PC12/L-SDFGRWY/S

Departure

Time 2026-05-05 16:29
Airport Gregorio Luperon International Airport (MDPP)

Arrival

Time 2026-05-05 18:20
Airport Princess Juliana International Airport (TNCM)
Time Latitude Longitude Altitude Speed Heading
2026-05-05 15:44 19.75704 -70.56198 31 ft 0 kts 250°
2026-05-05 16:25 19.75702 -70.56210 31 ft 6 kts 266°
2026-05-05 16:26 19.75706 -70.56350 31 ft 11 kts 298°
2026-05-05 16:26 19.75863 -70.56414 32 ft 13 kts 343°
2026-05-05 16:27 19.75929 -70.56471 33 ft 14 kts 270°
2026-05-05 16:27 19.75909 -70.56573 33 ft 14 kts 253°
2026-05-05 16:27 19.75875 -70.56684 33 ft 19 kts 252°
2026-05-05 16:27 19.75828 -70.56847 31 ft 26 kts 252°
2026-05-05 16:28 19.75774 -70.57050 31 ft 31 kts 253°
2026-05-05 16:28 19.75707 -70.57280 29 ft 34 kts 256°
2026-05-05 16:28 19.75657 -70.57460 29 ft 6 kts 150°
2026-05-05 16:28 19.75697 -70.57292 29 ft 49 kts 75°
2026-05-05 16:29 19.75857 -70.56772 37 ft 95 kts 77°
2026-05-05 16:29 19.76045 -70.56057 328 ft 107 kts 82°
2026-05-05 16:29 19.76063 -70.55981 362 ft 108 kts 81°
2026-05-05 16:29 19.76244 -70.55229 776 ft 119 kts 79°
2026-05-05 16:30 19.76521 -70.54349 1275 ft 126 kts 74°
2026-05-05 16:30 19.76802 -70.53480 1955 ft 123 kts 80°
2026-05-05 16:30 19.76787 -70.52655 2526 ft 110 kts 124°
2026-05-05 16:30 19.76436 -70.51928 3096 ft 112 kts 122°
2026-05-05 16:31 19.76100 -70.51157 3708 ft 118 kts 119°
2026-05-05 16:31 19.75776 -70.50352 4312 ft 120 kts 116°
2026-05-05 16:31 19.75453 -70.49532 4927 ft 120 kts 116°
2026-05-05 16:31 19.75128 -70.48699 5523 ft 123 kts 116°
2026-05-05 16:32 19.74802 -70.47859 6149 ft 125 kts 115°
2026-05-05 16:32 19.74469 -70.47001 6761 ft 126 kts 116°
2026-05-05 16:32 19.74135 -70.46139 7378 ft 127 kts 117°
2026-05-05 16:32 19.73801 -70.45274 7970 ft 130 kts 116°
2026-05-05 16:33 19.73452 -70.44370 8563 ft 133 kts 117°
2026-05-05 16:33 19.73100 -70.43460 9205 ft 134 kts 117°
2026-05-05 16:33 19.72739 -70.42528 9818 ft 138 kts 117°
2026-05-05 16:33 19.72370 -70.41574 10416 ft 140 kts 117°
2026-05-05 16:34 19.72001 -70.40620 10990 ft 142 kts 119°
2026-05-05 16:34 19.71620 -70.39634 11557 ft 146 kts 119°
2026-05-05 16:34 19.71229 -70.38625 12166 ft 149 kts 117°
2026-05-05 16:34 19.70829 -70.37591 12758 ft 154 kts 119°
2026-05-05 16:35 19.70421 -70.36532 13374 ft 156 kts 119°
2026-05-05 16:35 19.70001 -70.35449 13960 ft 160 kts 117°
2026-05-05 16:35 19.69576 -70.34349 14519 ft 162 kts 117°
2026-05-05 16:35 19.69144 -70.33234 15071 ft 164 kts 117°
2026-05-05 16:36 19.68854 -70.32485 15426 ft 167 kts 117°
2026-05-05 16:36 19.68411 -70.31341 15977 ft 169 kts 118°
2026-05-05 16:36 19.67959 -70.30177 16511 ft 173 kts 118°
2026-05-05 16:36 19.67500 -70.28991 17072 ft 174 kts 118°
2026-05-05 16:37 19.67036 -70.27792 17645 ft 176 kts 118°
2026-05-05 16:37 19.66567 -70.26583 18203 ft 178 kts 118°
2026-05-05 16:37 19.66098 -70.25372 18701 ft 181 kts 118°
2026-05-05 16:37 19.65618 -70.24134 19192 ft 182 kts 118°
2026-05-05 16:38 19.65087 -70.22791 19207 ft 216 kts 118°
2026-05-05 16:38 19.64479 -70.21241 19164 ft 234 kts 116°
2026-05-05 16:38 19.63851 -70.19602 19167 ft 244 kts 116°
2026-05-05 16:38 19.63200 -70.17910 19167 ft 251 kts 116°
2026-05-05 16:39 19.62528 -70.16179 19163 ft 256 kts 116°
2026-05-05 16:39 19.61842 -70.14416 19164 ft 260 kts 116°
2026-05-05 16:39 19.61148 -70.12630 19165 ft 263 kts 116°
2026-05-05 16:39 19.60448 -70.10826 19162 ft 265 kts 116°
2026-05-05 16:40 19.59750 -70.09030 19163 ft 268 kts 116°
2026-05-05 16:40 19.59039 -70.07201 19162 ft 269 kts 116°
2026-05-05 16:40 19.58315 -70.05340 19163 ft 270 kts 116°
2026-05-05 16:40 19.57607 -70.03521 19163 ft 270 kts 116°
2026-05-05 16:41 19.56889 -70.01677 19161 ft 271 kts 116°
2026-05-05 16:41 19.56170 -69.99832 19161 ft 271 kts 116°
2026-05-05 16:41 19.55451 -69.97986 19162 ft 271 kts 116°
2026-05-05 16:41 19.54732 -69.96141 19161 ft 271 kts 116°
2026-05-05 16:42 19.54011 -69.94290 19163 ft 272 kts 116°
2026-05-05 16:42 19.53286 -69.92431 19165 ft 272 kts 116°
2026-05-05 16:42 19.52562 -69.90576 19164 ft 272 kts 115°
2026-05-05 16:42 19.51923 -69.88685 19160 ft 272 kts 112°
2026-05-05 16:43 19.51249 -69.86835 19157 ft 271 kts 114°
2026-05-05 16:43 19.50557 -69.84973 19156 ft 271 kts 114°
2026-05-05 16:43 19.49889 -69.83104 19156 ft 271 kts 113°
2026-05-05 16:43 19.49228 -69.81231 19155 ft 271 kts 113°
2026-05-05 16:44 19.48562 -69.79361 19156 ft 271 kts 113°
2026-05-05 16:44 19.47894 -69.77499 19155 ft 271 kts 113°
2026-05-05 16:44 19.47224 -69.75629 19154 ft 270 kts 113°
2026-05-05 16:44 19.46558 -69.73766 19154 ft 270 kts 113°
2026-05-05 16:45 19.45898 -69.71921 19153 ft 270 kts 113°
2026-05-05 16:45 19.45232 -69.70058 19153 ft 270 kts 113°
2026-05-05 16:45 19.44564 -69.68194 19153 ft 270 kts 113°
2026-05-05 16:45 19.43897 -69.66332 19153 ft 270 kts 113°
2026-05-05 16:46 19.43230 -69.64470 19154 ft 270 kts 113°
2026-05-05 16:46 19.42563 -69.62610 19154 ft 270 kts 113°
2026-05-05 16:46 19.41895 -69.60748 19154 ft 270 kts 113°
2026-05-05 16:46 19.41229 -69.58890 19155 ft 270 kts 113°
2026-05-05 16:47 19.40561 -69.57029 19153 ft 270 kts 113°
2026-05-05 16:47 19.39895 -69.55174 19154 ft 270 kts 113°
2026-05-05 16:47 19.39227 -69.53315 19154 ft 270 kts 113°
2026-05-05 16:47 19.38567 -69.51477 19154 ft 270 kts 113°
2026-05-05 16:48 19.37898 -69.49616 19154 ft 270 kts 113°
2026-05-05 16:48 19.37230 -69.47757 19153 ft 270 kts 113°
2026-05-05 16:48 19.36562 -69.45901 19152 ft 270 kts 113°
2026-05-05 16:48 19.35894 -69.44044 19151 ft 270 kts 113°
2026-05-05 16:49 19.35226 -69.42188 19151 ft 270 kts 113°
2026-05-05 16:49 19.34557 -69.40329 19150 ft 270 kts 113°
2026-05-05 16:49 19.33887 -69.38470 19150 ft 270 kts 113°
2026-05-05 16:49 19.33226 -69.36636 19174 ft 270 kts 113°
2026-05-05 16:50 19.32558 -69.34782 19171 ft 270 kts 113°
2026-05-05 16:50 19.31889 -69.32927 19171 ft 270 kts 113°
2026-05-05 16:50 19.31218 -69.31066 19172 ft 270 kts 113°
2026-05-05 16:50 19.30545 -69.29202 19172 ft 270 kts 113°
2026-05-05 16:51 19.29873 -69.27341 19171 ft 270 kts 113°
2026-05-05 16:51 19.29201 -69.25481 19171 ft 270 kts 113°
2026-05-05 16:51 19.28529 -69.23620 19172 ft 270 kts 113°
2026-05-05 16:51 19.27858 -69.21764 19172 ft 270 kts 113°
2026-05-05 16:52 19.27195 -69.19931 19176 ft 270 kts 113°
2026-05-05 16:52 19.26523 -69.18073 19175 ft 270 kts 113°
2026-05-05 16:52 19.25850 -69.16212 19174 ft 271 kts 113°
2026-05-05 16:52 19.25177 -69.14352 19174 ft 270 kts 113°
2026-05-05 16:53 19.24504 -69.12491 19177 ft 270 kts 113°
2026-05-05 16:53 19.23830 -69.10632 19177 ft 270 kts 113°
2026-05-05 16:53 19.23157 -69.08774 19177 ft 270 kts 113°
2026-05-05 16:53 19.22485 -69.06919 19177 ft 270 kts 113°
2026-05-05 16:54 19.21814 -69.05068 19169 ft 269 kts 112°
2026-05-05 16:54 19.21143 -69.03219 19169 ft 269 kts 112°
2026-05-05 16:54 19.20472 -69.01369 19169 ft 269 kts 112°
2026-05-05 16:54 19.19800 -68.99518 19169 ft 269 kts 112°
2026-05-05 16:55 19.19130 -68.97673 19174 ft 269 kts 112°
2026-05-05 16:55 19.18468 -68.95850 19174 ft 269 kts 112°
2026-05-05 16:55 19.17798 -68.94005 19174 ft 269 kts 112°
2026-05-05 16:55 19.17128 -68.92161 19174 ft 269 kts 112°
2026-05-05 16:56 19.16457 -68.90315 19172 ft 268 kts 112°
2026-05-05 16:56 19.15785 -68.88469 19172 ft 268 kts 112°
2026-05-05 16:56 19.15114 -68.86625 19172 ft 268 kts 112°
2026-05-05 16:56 19.14444 -68.84783 19177 ft 268 kts 112°
2026-05-05 16:57 19.13773 -68.82944 19177 ft 268 kts 112°
2026-05-05 16:57 19.13098 -68.81109 19177 ft 267 kts 113°
2026-05-05 16:57 19.12431 -68.79298 19177 ft 267 kts 112°
2026-05-05 16:57 19.11757 -68.77467 19176 ft 267 kts 112°
2026-05-05 16:58 19.11085 -68.75637 19176 ft 267 kts 112°
2026-05-05 16:58 19.10413 -68.73810 19176 ft 267 kts 112°
2026-05-05 16:58 19.09741 -68.71984 19179 ft 267 kts 112°
2026-05-05 16:58 19.09067 -68.70156 19179 ft 266 kts 112°
2026-05-05 16:59 19.08395 -68.68331 19179 ft 266 kts 112°
2026-05-05 16:59 19.07721 -68.66502 19179 ft 267 kts 112°
2026-05-05 16:59 19.07048 -68.64675 19179 ft 267 kts 112°
2026-05-05 16:59 19.06375 -68.62848 19179 ft 267 kts 112°
2026-05-05 17:00 19.05700 -68.61020 19179 ft 267 kts 113°
2026-05-05 17:00 19.05027 -68.59196 19182 ft 267 kts 113°
2026-05-05 17:00 19.04353 -68.57370 19182 ft 267 kts 113°
2026-05-05 17:00 19.03679 -68.55544 19182 ft 267 kts 113°
2026-05-05 17:01 19.03004 -68.53716 19182 ft 267 kts 113°
2026-05-05 17:01 19.02328 -68.51887 19180 ft 266 kts 112°
2026-05-05 17:01 19.01663 -68.50087 19180 ft 266 kts 112°
2026-05-05 17:01 19.00982 -68.48244 19180 ft 266 kts 113°
2026-05-05 17:02 19.00317 -68.46447 19180 ft 266 kts 113°
2026-05-05 17:02 18.99644 -68.44628 19181 ft 266 kts 113°
2026-05-05 17:02 18.98969 -68.42805 19181 ft 266 kts 113°
2026-05-05 17:02 18.98296 -68.40988 19181 ft 266 kts 113°
2026-05-05 17:03 18.97623 -68.39170 19183 ft 266 kts 113°
2026-05-05 17:03 18.96948 -68.37348 19182 ft 266 kts 113°
2026-05-05 17:03 18.96274 -68.35529 19182 ft 266 kts 113°
2026-05-05 17:03 18.95600 -68.33712 19183 ft 265 kts 113°
2026-05-05 17:04 18.94926 -68.31893 19181 ft 266 kts 113°
2026-05-05 17:04 18.94251 -68.30075 19181 ft 266 kts 113°
2026-05-05 17:04 18.93585 -68.28279 19181 ft 266 kts 113°
2026-05-05 17:04 18.92902 -68.26440 19181 ft 266 kts 113°
2026-05-05 17:05 18.92237 -68.24648 19178 ft 266 kts 113°
2026-05-05 17:05 18.91562 -68.22832 19178 ft 266 kts 113°
2026-05-05 17:05 18.90887 -68.21015 19178 ft 266 kts 113°
2026-05-05 17:05 18.90211 -68.19197 19179 ft 266 kts 113°
2026-05-05 17:06 18.89533 -68.17374 19181 ft 267 kts 112°
2026-05-05 17:06 18.88855 -68.15552 19181 ft 267 kts 112°
2026-05-05 17:06 18.88175 -68.13724 19181 ft 267 kts 112°
2026-05-05 17:06 18.87495 -68.11898 19181 ft 267 kts 112°
2026-05-05 17:07 18.86814 -68.10070 19176 ft 268 kts 112°
2026-05-05 17:07 18.86132 -68.08239 19177 ft 268 kts 112°
2026-05-05 17:07 18.85449 -68.06405 19177 ft 268 kts 112°
2026-05-05 17:07 18.84776 -68.04600 19177 ft 268 kts 112°
2026-05-05 17:08 18.84092 -68.02766 19179 ft 268 kts 112°
2026-05-05 17:08 18.83410 -68.00937 19179 ft 268 kts 112°
2026-05-05 17:08 18.82726 -67.99103 19179 ft 268 kts 112°
2026-05-05 17:08 18.82042 -67.97273 19179 ft 268 kts 112°
2026-05-05 17:09 18.81359 -67.95443 19182 ft 268 kts 113°
2026-05-05 17:09 18.80675 -67.93613 19182 ft 268 kts 113°
2026-05-05 17:09 18.79991 -67.91782 19182 ft 268 kts 113°
2026-05-05 17:09 18.79316 -67.89977 19182 ft 268 kts 113°
2026-05-05 17:10 18.78631 -67.88143 19177 ft 268 kts 113°
2026-05-05 17:10 18.77946 -67.86313 19177 ft 268 kts 113°
2026-05-05 17:10 18.77262 -67.84484 19177 ft 268 kts 113°
2026-05-05 17:10 18.76577 -67.82654 19177 ft 268 kts 113°
2026-05-05 17:11 18.75892 -67.80824 19179 ft 268 kts 113°
2026-05-05 17:11 18.75207 -67.78997 19182 ft 268 kts 113°
2026-05-05 17:11 18.74521 -67.77166 19179 ft 268 kts 113°
2026-05-05 17:11 18.73838 -67.75343 19179 ft 267 kts 113°
2026-05-05 17:12 18.73154 -67.73519 19179 ft 267 kts 112°
2026-05-05 17:12 18.72472 -67.71699 19179 ft 267 kts 112°
2026-05-05 17:12 18.71789 -67.69881 19179 ft 267 kts 112°
2026-05-05 17:12 18.71106 -67.68061 19179 ft 266 kts 113°
2026-05-05 17:13 18.70424 -67.66243 19179 ft 266 kts 112°
2026-05-05 17:13 18.69751 -67.64451 19179 ft 266 kts 112°
2026-05-05 17:13 18.69068 -67.62635 19179 ft 266 kts 112°
2026-05-05 17:13 18.68387 -67.60821 19179 ft 266 kts 112°
2026-05-05 17:14 18.67705 -67.59007 19179 ft 266 kts 113°
2026-05-05 17:14 18.67022 -67.57191 19179 ft 266 kts 112°
2026-05-05 17:14 18.66339 -67.55376 19179 ft 266 kts 112°
2026-05-05 17:14 18.65656 -67.53562 19180 ft 266 kts 113°
2026-05-05 17:15 18.64974 -67.51750 19178 ft 266 kts 113°
2026-05-05 17:15 18.64290 -67.49934 19178 ft 265 kts 113°
2026-05-05 17:15 18.63609 -67.48125 19177 ft 265 kts 113°
2026-05-05 17:15 18.62928 -67.46320 19179 ft 265 kts 113°
2026-05-05 17:16 18.62255 -67.44533 19183 ft 265 kts 113°
2026-05-05 17:16 18.61573 -67.42724 19184 ft 265 kts 113°
2026-05-05 17:16 18.60892 -67.40920 19186 ft 265 kts 113°
2026-05-05 17:16 18.60211 -67.39115 19188 ft 265 kts 113°
2026-05-05 17:17 18.59589 -67.37290 19188 ft 264 kts 103°
2026-05-05 17:17 18.59339 -67.35375 19194 ft 264 kts 97°
2026-05-05 17:17 18.59145 -67.33452 19196 ft 264 kts 96°
2026-05-05 17:17 18.58938 -67.31518 19197 ft 264 kts 97°
2026-05-05 17:18 18.58722 -67.29614 19200 ft 265 kts 97°
2026-05-05 17:18 18.58505 -67.27687 19201 ft 265 kts 97°
2026-05-05 17:18 18.58290 -67.25756 19202 ft 265 kts 97°
2026-05-05 17:18 18.58076 -67.23824 19204 ft 265 kts 97°
2026-05-05 17:19 18.57860 -67.21888 19206 ft 265 kts 97°
2026-05-05 17:19 18.57644 -67.19957 19207 ft 265 kts 97°
2026-05-05 17:19 18.57428 -67.18028 19208 ft 265 kts 97°
2026-05-05 17:19 18.57212 -67.16100 19208 ft 265 kts 97°
2026-05-05 17:20 18.56997 -67.14172 19208 ft 265 kts 97°
2026-05-05 17:20 18.56783 -67.12265 19209 ft 265 kts 97°
2026-05-05 17:20 18.56566 -67.10334 19209 ft 265 kts 97°
2026-05-05 17:20 18.56350 -67.08407 19208 ft 266 kts 97°
2026-05-05 17:21 18.56131 -67.06463 19207 ft 268 kts 97°
2026-05-05 17:21 18.55912 -67.04511 19206 ft 269 kts 97°
2026-05-05 17:21 18.55691 -67.02554 19205 ft 269 kts 97°
2026-05-05 17:22 18.55248 -66.98622 19200 ft 269 kts 97°
2026-05-05 17:22 18.55101 -66.97324 19199 ft 269 kts 97°
2026-05-05 17:22 18.54879 -66.95361 19197 ft 269 kts 97°
2026-05-05 17:22 18.54658 -66.93400 19196 ft 269 kts 97°
2026-05-05 17:23 18.54436 -66.91440 19193 ft 269 kts 97°
2026-05-05 17:23 18.54214 -66.89482 19191 ft 269 kts 97°
2026-05-05 17:23 18.53992 -66.87528 19189 ft 269 kts 97°
2026-05-05 17:23 18.53770 -66.85575 19187 ft 268 kts 97°
2026-05-05 17:24 18.53548 -66.83622 19186 ft 268 kts 97°
2026-05-05 17:24 18.53326 -66.81672 19184 ft 268 kts 97°
2026-05-05 17:24 18.53106 -66.79742 19183 ft 268 kts 97°
2026-05-05 17:24 18.52885 -66.77797 19181 ft 267 kts 97°
2026-05-05 17:25 18.52662 -66.75847 19179 ft 267 kts 97°
2026-05-05 17:25 18.52516 -66.74562 19178 ft 267 kts 97°
2026-05-05 17:25 18.52218 -66.71960 19178 ft 267 kts 97°
2026-05-05 17:25 18.51996 -66.70017 19178 ft 267 kts 97°
2026-05-05 17:26 18.51773 -66.68068 19179 ft 267 kts 97°
2026-05-05 17:26 18.51551 -66.66128 19178 ft 267 kts 97°
2026-05-05 17:26 18.51328 -66.64187 19178 ft 267 kts 97°
2026-05-05 17:26 18.51105 -66.62248 19181 ft 266 kts 97°
2026-05-05 17:27 18.50883 -66.60308 19178 ft 266 kts 97°
2026-05-05 17:27 18.50663 -66.58397 19178 ft 266 kts 97°
2026-05-05 17:27 18.50440 -66.56462 19178 ft 266 kts 96°
2026-05-05 17:27 18.50216 -66.54523 19178 ft 266 kts 97°
2026-05-05 17:28 18.49992 -66.52584 19184 ft 267 kts 96°
2026-05-05 17:28 18.49768 -66.50643 19180 ft 267 kts 96°
2026-05-05 17:28 18.49544 -66.48699 19182 ft 267 kts 97°
2026-05-05 17:28 18.49319 -66.46755 19182 ft 267 kts 97°
2026-05-05 17:29 18.49093 -66.44807 19182 ft 267 kts 97°
2026-05-05 17:29 18.48867 -66.42858 19183 ft 267 kts 97°
2026-05-05 17:29 18.48642 -66.40910 19184 ft 268 kts 97°
2026-05-05 17:29 18.48415 -66.38957 19185 ft 268 kts 97°
2026-05-05 17:30 18.48188 -66.37006 19182 ft 268 kts 97°
2026-05-05 17:30 18.47961 -66.35050 19181 ft 269 kts 96°
2026-05-05 17:30 18.47733 -66.33098 19182 ft 269 kts 97°
2026-05-05 17:30 18.47508 -66.31165 19183 ft 269 kts 97°
2026-05-05 17:31 18.47280 -66.29210 19187 ft 268 kts 97°
2026-05-05 17:31 18.47052 -66.27259 19188 ft 268 kts 97°
2026-05-05 17:31 18.46824 -66.25302 19188 ft 269 kts 97°
2026-05-05 17:31 18.46595 -66.23343 19185 ft 269 kts 96°
2026-05-05 17:32 18.46364 -66.21381 19189 ft 269 kts 96°
2026-05-05 17:32 18.46137 -66.19446 19191 ft 270 kts 96°
2026-05-05 17:32 18.45905 -66.17469 19185 ft 272 kts 96°
2026-05-05 17:32 18.45674 -66.15494 19187 ft 271 kts 96°
2026-05-05 17:33 18.45441 -66.13524 19187 ft 270 kts 96°
2026-05-05 17:33 18.45210 -66.11562 19186 ft 270 kts 96°
2026-05-05 17:33 18.44980 -66.09596 19186 ft 270 kts 96°
2026-05-05 17:33 18.44748 -66.07628 19187 ft 271 kts 96°
2026-05-05 17:34 18.44515 -66.05660 19188 ft 271 kts 97°
2026-05-05 17:34 18.44283 -66.03695 19186 ft 270 kts 97°
2026-05-05 17:34 18.44052 -66.01729 19186 ft 271 kts 96°
2026-05-05 17:34 18.43820 -65.99758 19187 ft 271 kts 96°
2026-05-05 17:35 18.43586 -65.97787 19188 ft 271 kts 97°
2026-05-05 17:35 18.43355 -65.95847 19187 ft 270 kts 96°
2026-05-05 17:35 18.43123 -65.93879 19186 ft 270 kts 96°
2026-05-05 17:35 18.42891 -65.91911 19186 ft 271 kts 96°
2026-05-05 17:36 18.42657 -65.89943 19188 ft 270 kts 96°
2026-05-05 17:36 18.42422 -65.87980 19189 ft 270 kts 96°
2026-05-05 17:36 18.42188 -65.86017 19188 ft 270 kts 96°
2026-05-05 17:36 18.41955 -65.84048 19188 ft 272 kts 96°
2026-05-05 17:37 18.41720 -65.82070 19193 ft 272 kts 96°
2026-05-05 17:37 18.41483 -65.80093 19191 ft 272 kts 96°
2026-05-05 17:37 18.41247 -65.78112 19190 ft 272 kts 96°
2026-05-05 17:37 18.41013 -65.76155 19192 ft 274 kts 96°
2026-05-05 17:38 18.40775 -65.74163 19188 ft 274 kts 96°
2026-05-05 17:38 18.40537 -65.72174 19193 ft 273 kts 96°
2026-05-05 17:38 18.40299 -65.70191 19195 ft 273 kts 96°
2026-05-05 17:38 18.40063 -65.68210 19190 ft 273 kts 95°
2026-05-05 17:39 18.39825 -65.66227 19196 ft 273 kts 96°
2026-05-05 17:39 18.39585 -65.64241 19199 ft 272 kts 96°
2026-05-05 17:39 18.39347 -65.62260 19198 ft 272 kts 96°
2026-05-05 17:39 18.39113 -65.60314 19202 ft 271 kts 96°
2026-05-05 17:40 18.38876 -65.58346 19202 ft 270 kts 96°
2026-05-05 17:40 18.38640 -65.56385 19202 ft 270 kts 96°
2026-05-05 17:40 18.38405 -65.54432 19202 ft 269 kts 96°
2026-05-05 17:40 18.38169 -65.52478 19201 ft 269 kts 96°
2026-05-05 17:41 18.37932 -65.50527 19200 ft 269 kts 96°
2026-05-05 17:41 18.37696 -65.48568 19195 ft 268 kts 96°
2026-05-05 17:41 18.37461 -65.46620 19195 ft 268 kts 96°
2026-05-05 17:41 18.37225 -65.44675 19195 ft 268 kts 96°
2026-05-05 17:42 18.36992 -65.42751 19194 ft 268 kts 96°
2026-05-05 17:42 18.36756 -65.40807 19194 ft 267 kts 96°
2026-05-05 17:42 18.36518 -65.38863 19195 ft 267 kts 96°
2026-05-05 17:42 18.36283 -65.36924 19194 ft 267 kts 96°
2026-05-05 17:43 18.36047 -65.34983 19191 ft 267 kts 96°
2026-05-05 17:43 18.35811 -65.33048 19193 ft 267 kts 96°
2026-05-05 17:43 18.35575 -65.31113 19193 ft 266 kts 96°
2026-05-05 17:43 18.35339 -65.29179 19193 ft 266 kts 96°
2026-05-05 17:44 18.35104 -65.27246 19195 ft 266 kts 96°
2026-05-05 17:44 18.34869 -65.25311 19195 ft 266 kts 96°
2026-05-05 17:44 18.34634 -65.23399 19193 ft 266 kts 96°
2026-05-05 17:44 18.34398 -65.21467 19194 ft 266 kts 96°
2026-05-05 17:45 18.34161 -65.19536 19194 ft 267 kts 96°
2026-05-05 17:45 18.33924 -65.17602 19196 ft 266 kts 96°
2026-05-05 17:45 18.33686 -65.15666 19196 ft 266 kts 96°
2026-05-05 17:45 18.33448 -65.13731 19196 ft 266 kts 96°
2026-05-05 17:46 18.33210 -65.11795 19196 ft 266 kts 96°
2026-05-05 17:46 18.32972 -65.09861 19197 ft 266 kts 96°
2026-05-05 17:46 18.32734 -65.07925 19197 ft 266 kts 96°
2026-05-05 17:46 18.32495 -65.05991 19198 ft 266 kts 96°
2026-05-05 17:47 18.32258 -65.04063 19198 ft 266 kts 96°
2026-05-05 17:47 18.32020 -65.02130 19198 ft 266 kts 96°
2026-05-05 17:47 18.31781 -65.00200 19198 ft 266 kts 96°
2026-05-05 17:47 18.31542 -64.98272 19201 ft 266 kts 96°
2026-05-05 17:48 18.31303 -64.96342 19196 ft 265 kts 96°
2026-05-05 17:48 18.31068 -64.94437 19195 ft 266 kts 96°
2026-05-05 17:48 18.30828 -64.92506 19196 ft 266 kts 96°
2026-05-05 17:48 18.30588 -64.90576 19196 ft 265 kts 96°
2026-05-05 17:49 18.30350 -64.88650 19198 ft 265 kts 96°
2026-05-05 17:49 18.30111 -64.86724 19197 ft 265 kts 95°
2026-05-05 17:49 18.29872 -64.84799 19197 ft 265 kts 96°
2026-05-05 17:49 18.29632 -64.82874 19197 ft 265 kts 96°
2026-05-05 17:50 18.29392 -64.80951 19193 ft 265 kts 96°
2026-05-05 17:50 18.29153 -64.79030 19192 ft 265 kts 96°
2026-05-05 17:50 18.28913 -64.77107 19192 ft 265 kts 96°
2026-05-05 17:50 18.28674 -64.75202 19191 ft 265 kts 96°
2026-05-05 17:51 18.28434 -64.73280 19192 ft 265 kts 96°
2026-05-05 17:51 18.28193 -64.71356 19188 ft 265 kts 95°
2026-05-05 17:51 18.27952 -64.69429 19182 ft 265 kts 96°
2026-05-05 17:51 18.27711 -64.67501 19183 ft 265 kts 96°
2026-05-05 17:52 18.27470 -64.65582 19180 ft 265 kts 96°
2026-05-05 17:52 18.27228 -64.63654 19179 ft 265 kts 96°
2026-05-05 17:52 18.26986 -64.61729 19179 ft 266 kts 96°
2026-05-05 17:52 18.26744 -64.59802 19181 ft 265 kts 96°
2026-05-05 17:53 18.26501 -64.57878 19178 ft 265 kts 96°
2026-05-05 17:53 18.26263 -64.55978 19178 ft 265 kts 96°
2026-05-05 17:53 18.26020 -64.54052 19178 ft 265 kts 96°
2026-05-05 17:53 18.25778 -64.52128 19178 ft 265 kts 96°
2026-05-05 17:54 18.25534 -64.50204 19176 ft 265 kts 96°
2026-05-05 17:54 18.25291 -64.48282 19176 ft 265 kts 96°
2026-05-05 17:54 18.25048 -64.46360 19175 ft 265 kts 96°
2026-05-05 17:54 18.24804 -64.44428 19176 ft 265 kts 96°
2026-05-05 17:55 18.24563 -64.42522 19179 ft 265 kts 96°
2026-05-05 17:55 18.24318 -64.40597 19179 ft 265 kts 96°
2026-05-05 17:55 18.24075 -64.38675 19179 ft 265 kts 96°
2026-05-05 17:55 18.23831 -64.36752 19179 ft 266 kts 96°
2026-05-05 17:56 18.23585 -64.34821 19181 ft 265 kts 96°
2026-05-05 17:56 18.23341 -64.32899 19181 ft 265 kts 96°
2026-05-05 17:56 18.23096 -64.30979 19181 ft 265 kts 96°
2026-05-05 17:56 18.22851 -64.29055 19180 ft 266 kts 95°
2026-05-05 17:57 18.22609 -64.27153 19176 ft 266 kts 96°
2026-05-05 17:57 18.22364 -64.25229 19178 ft 265 kts 96°
2026-05-05 17:57 18.22118 -64.23306 19182 ft 265 kts 96°
2026-05-05 17:57 18.21872 -64.21386 19181 ft 265 kts 95°
2026-05-05 17:58 18.21627 -64.19458 19187 ft 265 kts 95°
2026-05-05 17:58 18.21380 -64.17536 19187 ft 265 kts 96°
2026-05-05 17:58 18.21133 -64.15611 19187 ft 265 kts 96°
2026-05-05 17:58 18.20886 -64.13689 19187 ft 265 kts 95°
2026-05-05 17:59 18.20641 -64.11783 19221 ft 253 kts 96°
2026-05-05 17:59 18.20355 -64.10041 19212 ft 229 kts 104°
2026-05-05 17:59 18.19545 -64.08739 19193 ft 208 kts 144°
2026-05-05 17:59 18.18263 -64.08296 19175 ft 186 kts 178°
2026-05-05 18:00 18.16969 -64.08249 18685 ft 198 kts 179°
2026-05-05 18:00 18.15518 -64.08130 18062 ft 217 kts 173°
2026-05-05 18:00 18.14044 -64.07756 17610 ft 218 kts 163°
2026-05-05 18:00 18.12795 -64.06875 17141 ft 219 kts 131°
2026-05-05 18:01 18.12130 -64.05463 16680 ft 217 kts 98°
2026-05-05 18:01 18.11936 -64.03880 16328 ft 223 kts 95°
2026-05-05 18:01 18.11735 -64.02206 16005 ft 236 kts 97°
2026-05-05 18:01 18.11486 -64.00474 15674 ft 244 kts 98°
2026-05-05 18:02 18.11226 -63.98686 15333 ft 251 kts 97°
2026-05-05 18:02 18.10968 -63.96851 14985 ft 256 kts 97°
2026-05-05 18:02 18.10708 -63.94985 14640 ft 259 kts 98°
2026-05-05 18:02 18.10445 -63.93100 14316 ft 260 kts 98°
2026-05-05 18:03 18.10181 -63.91221 14069 ft 258 kts 98°
2026-05-05 18:03 18.09920 -63.89363 13811 ft 256 kts 98°
2026-05-05 18:03 18.09665 -63.87545 13534 ft 254 kts 98°
2026-05-05 18:03 18.09408 -63.85715 13253 ft 252 kts 98°
2026-05-05 18:04 18.09152 -63.83892 12980 ft 251 kts 99°
2026-05-05 18:04 18.08897 -63.82077 12707 ft 250 kts 99°
2026-05-05 18:04 18.08643 -63.80272 12436 ft 249 kts 99°
2026-05-05 18:04 18.08390 -63.78479 12167 ft 247 kts 99°
2026-05-05 18:05 18.08138 -63.76694 11901 ft 247 kts 99°
2026-05-05 18:05 18.07887 -63.74914 11637 ft 246 kts 99°
2026-05-05 18:05 18.07636 -63.73140 11376 ft 245 kts 99°
2026-05-05 18:05 18.07389 -63.71389 11118 ft 243 kts 99°
2026-05-05 18:06 18.07140 -63.69631 10860 ft 242 kts 99°
2026-05-05 18:06 18.07057 -63.69039 10774 ft 242 kts 99°
2026-05-05 18:06 18.06647 -63.66145 10351 ft 240 kts 99°
2026-05-05 18:06 18.06403 -63.64418 10099 ft 239 kts 99°
2026-05-05 18:07 18.06160 -63.62700 9833 ft 238 kts 100°
2026-05-05 18:07 18.05916 -63.60980 9557 ft 236 kts 100°
2026-05-05 18:07 18.05755 -63.59848 9378 ft 235 kts 100°
2026-05-05 18:07 18.05435 -63.57600 9015 ft 234 kts 100°
2026-05-05 18:08 18.05196 -63.55917 8743 ft 232 kts 99°
2026-05-05 18:08 18.04959 -63.54241 8473 ft 230 kts 99°
2026-05-05 18:08 18.04800 -63.53121 8290 ft 229 kts 100°
2026-05-05 18:08 18.04568 -63.51491 8032 ft 227 kts 100°
2026-05-05 18:09 18.04334 -63.49856 7766 ft 225 kts 100°
2026-05-05 18:09 18.04103 -63.48234 7506 ft 224 kts 99°
2026-05-05 18:09 18.03873 -63.46609 7249 ft 223 kts 100°
2026-05-05 18:09 18.03643 -63.45000 6991 ft 222 kts 100°
2026-05-05 18:10 18.03414 -63.43408 6739 ft 219 kts 100°
2026-05-05 18:10 18.03188 -63.41829 6488 ft 218 kts 100°
2026-05-05 18:10 18.02964 -63.40253 6212 ft 217 kts 99°
2026-05-05 18:10 18.02740 -63.38679 5913 ft 218 kts 100°
2026-05-05 18:11 18.02516 -63.37100 5595 ft 219 kts 100°
2026-05-05 18:11 18.02293 -63.35521 5282 ft 218 kts 99°
2026-05-05 18:11 18.02073 -63.33963 4975 ft 218 kts 100°
2026-05-05 18:11 18.01851 -63.32384 4659 ft 219 kts 100°
2026-05-05 18:12 18.01628 -63.30794 4340 ft 219 kts 100°
2026-05-05 18:12 18.01405 -63.29205 4029 ft 218 kts 100°
2026-05-05 18:12 18.01186 -63.27630 3712 ft 218 kts 100°
2026-05-05 18:12 18.01218 -63.26054 3397 ft 218 kts 79°
2026-05-05 18:13 18.01622 -63.24544 3084 ft 217 kts 76°
2026-05-05 18:13 18.02058 -63.23032 2762 ft 216 kts 77°
2026-05-05 18:13 18.02508 -63.21538 2493 ft 213 kts 76°
2026-05-05 18:13 18.02937 -63.20089 2258 ft 205 kts 77°
2026-05-05 18:14 18.03243 -63.18622 1801 ft 202 kts 86°
2026-05-05 18:14 18.03330 -63.17215 1486 ft 186 kts 89°
2026-05-05 18:14 18.03378 -63.15930 1325 ft 161 kts 99°
2026-05-05 18:14 18.02965 -63.14993 1356 ft 135 kts 139°
2026-05-05 18:15 18.02104 -63.15016 1301 ft 146 kts 216°
2026-05-05 18:15 18.01822 -63.16047 1115 ft 161 kts 283°
2026-05-05 18:15 18.02503 -63.16843 1109 ft 147 kts 354°
2026-05-05 18:15 18.03238 -63.16436 1002 ft 119 kts 69°
2026-05-05 18:16 18.03458 -63.15634 757 ft 112 kts 85°
2026-05-05 18:16 18.03569 -63.14815 606 ft 113 kts 90°
2026-05-05 18:16 18.03666 -63.13994 435 ft 110 kts 85°
2026-05-05 18:16 18.03764 -63.13213 285 ft 105 kts 86°
2026-05-05 18:17 18.03881 -63.12432 121 ft 111 kts 85°
2026-05-05 18:17 18.03988 -63.11637 23 ft 102 kts 85°
2026-05-05 18:17 18.04082 -63.10972 114 ft 89 kts 86°
2026-05-05 18:17 18.03973 -63.10349 389 ft 109 kts 137°
2026-05-05 18:18 18.03106 -63.10404 589 ft 149 kts 201°
2026-05-05 18:18 18.02229 -63.11017 563 ft 146 kts 222°
2026-05-05 18:18 18.01932 -63.11935 501 ft 128 kts 272°
2026-05-05 18:18 18.02290 -63.12720 454 ft 110 kts 319°
2026-05-05 18:19 18.02947 -63.12988 329 ft 98 kts
2026-05-05 18:19 18.03546 -63.12743 202 ft 88 kts 44°
2026-05-05 18:19 18.03876 -63.12243 80 ft 82 kts 78°
2026-05-05 18:19 18.03972 -63.11741 18 ft 59 kts 90°
2026-05-05 18:20 18.04024 -63.11370 17 ft 44 kts 84°
2026-05-05 18:20 18.04078 -63.11289 17 ft 13 kts
2026-05-05 18:20 18.04189 -63.11304 17 ft 17 kts 353°
2026-05-05 18:20 18.04273 -63.11269 17 ft 6 kts 59°
2026-05-05 18:21 18.04276 -63.11262 17 ft 0 kts 61°
2026-05-05 18:21 18.04274 -63.11283 17 ft 19 kts 226°
2026-05-05 18:21 18.04221 -63.11226 17 ft 8 kts 62°
2026-05-05 18:22 18.04245 -63.11222 17 ft 2 kts 352°
2026-05-05 18:22 18.04255 -63.11223 17 ft 0 kts 352°